YB3RDW-13 Weather Reports


time (UTC)temp
C
wind
direction
speed
KPH
gust
KPH
rain 1hr
cm
rain 24hr
cm
rain mn
cm
humidity
%
barometer
mb
20260502221657 25 161 0.0 0.0 0.00 0.00 0.58 96 1011.0
20260502221158 25 161 0.0 0.0 0.00 0.00 0.58 96 1011.0
20260502220658 25 159 0.0 0.0 0.00 0.00 0.58 96 1011.0
20260502220157 25 162 0.0 0.0 0.00 0.00 0.58 96 1011.0
20260502215657 25 144 0.0 0.0 0.00 0.00 0.58 95 1011.0
20260502215157 25 151 0.0 0.0 0.00 0.00 0.58 95 1011.0
20260502214657 25 150 0.0 0.0 0.00 0.00 0.58 95 1011.0
20260502214157 25 129 0.0 0.0 0.00 0.00 0.58 95 1011.0
20260502213657 26 155 0.0 0.0 0.00 0.00 0.58 95 1011.0
20260502213157 26 158 0.0 0.0 0.00 0.00 0.58 94 1011.0
20260502212658 26 152 0.0 0.0 0.00 0.00 0.58 94 1011.0
20260502212157 26 140 0.0 0.0 0.00 0.00 0.58 94 1011.0
20260502211658 26 142 0.0 0.0 0.00 0.00 0.58 94 1011.0
20260502211157 26 130 1.6 1.6 0.00 0.00 0.58 93 1011.0
20260502210659 26 150 0.0 0.0 0.00 0.00 0.58 94 1011.0
20260502210157 26 206 0.0 0.0 0.00 0.00 0.58 93 1011.0
20260502205657 26 169 0.0 0.0 0.00 0.00 0.58 94 1011.0
20260502205157 26 176 0.0 0.0 0.00 0.00 0.58 94 1010.0
20260502204657 26 175 0.0 1.6 0.00 0.00 0.58 94 1011.0
20260502204157 26 179 0.0 0.0 0.00 0.00 0.58 94 1011.0
20260502203657 26 169 0.0 0.0 0.00 0.00 0.58 94 1011.0
20260502203157 26 177 0.0 0.0 0.00 0.00 0.58 94 1011.0
20260502202657 26 162 0.0 0.0 0.00 0.00 0.58 94 1011.0
20260502202158 26 132 4.8 4.8 0.00 0.00 0.58 94 1011.0
20260502201657 26 205 3.2 3.2 0.00 0.00 0.58 95 1011.0
20260502201157 26 138 3.2 3.2 0.00 0.00 0.58 94 1011.0
20260502200658 26 172 4.8 4.8 0.00 0.00 0.58 95 1010.0
20260502200157 26 137 3.2 3.2 0.00 0.00 0.58 95 1010.0
20260502195657 26 229 3.2 3.2 0.00 0.00 0.58 95 1011.0
20260502195157 26 179 1.6 1.6 0.00 0.00 0.58 95 1011.0
20260502194658 26 102 3.2 3.2 0.00 0.00 0.58 95 1011.0
20260502194157 26 343 4.8 8.0 0.00 0.00 0.58 94 1011.0
20260502193657 26 46 4.8 4.8 0.00 0.00 0.58 96 1011.0
20260502193157 26 266 6.4 8.0 0.00 0.00 0.58 97 1011.0
20260502192657 26 164 0.0 1.6 0.00 0.00 0.58 97 1011.0
20260502192157 26 247 4.8 4.8 0.00 0.00 0.58 98 1011.0
20260502191657 26 166 0.0 0.0 0.00 0.00 0.58 97 1010.0
20260502191157 26 160 0.0 0.0 0.00 0.00 0.58 97 1011.0
20260502190657 26 145 0.0 0.0 0.00 0.00 0.58 97 1010.0
20260502190157 26 160 0.0 0.0 0.00 0.00 0.58 97 1011.0
20260502185657 26 159 0.0 0.0 0.00 0.00 0.58 97 1011.0
20260502185157 26 160 0.0 0.0 0.00 0.00 0.58 97 1011.0
20260502184658 26 155 0.0 0.0 0.00 0.00 0.58 97 1011.0
20260502184158 26 164 0.0 0.0 0.00 0.00 0.58 97 1011.0
20260502183659 26 165 0.0 0.0 0.00 0.00 0.58 97 1011.0
20260502183157 26 163 0.0 0.0 0.00 0.00 0.58 97 1011.0
20260502182657 26 165 0.0 0.0 0.00 0.00 0.58 97 1011.0
20260502182200 26 162 0.0 0.0 0.00 0.00 0.58 97 1011.0
20260502181657 26 162 0.0 0.0 0.00 0.00 0.58 97 1011.0
20260502181157 26 162 0.0 0.0 0.00 0.00 0.58 97 1011.0
20260502180658 26 160 0.0 0.0 0.00 0.00 0.58 97 1011.0
20260502180157 26 167 0.0 0.0 0.00 0.00 0.58 97 1011.0
20260502170157 26 263 8.0 8.0 4.14 0.00 0.10 92 1012.0
20260502164157 27 161 0.0 0.0 0.00 0.00 0.00 91 1012.0
20260502163657 27 159 0.0 0.0 0.00 0.00 0.00 91 1012.0
20260502163157 27 152 0.0 0.0 0.00 0.00 0.00 92 1012.0
20260502162658 26 166 0.0 0.0 0.00 0.00 0.00 92 1012.0
20260502162157 26 168 0.0 0.0 0.00 0.00 0.00 92 1012.0
20260502161657 27 156 0.0 0.0 0.00 0.00 0.00 92 1012.0
20260502161157 27 156 0.0 0.0 0.00 0.00 0.00 92 1012.0
20260502160657 27 151 0.0 0.0 0.00 0.00 0.00 91 1012.0
20260502160157 27 158 0.0 0.0 0.00 0.00 0.00 91 1012.0
20260502152157 27 160 0.0 0.0 0.00 0.00 0.00 90 1012.0
20260502151657 27 163 0.0 0.0 0.00 0.00 0.00 90 1013.0
20260502151157 27 158 0.0 0.0 0.00 0.00 0.00 90 1013.0
20260502150700 27 132 3.2 3.2 0.00 0.00 0.00 90 1013.0
20260502150158 27 150 0.0 0.0 0.00 0.00 0.00 89 1012.0
20260502130657 28 168 0.0 0.0 0.00 0.00 0.00 85 1012.0
20260502130157 28 163 0.0 0.0 0.00 0.00 0.00 84 1012.0
20260502123657 28 172 0.0 0.0 0.00 0.00 0.00 82 1012.0
20260502123157 28 176 0.0 0.0 0.00 0.00 0.00 82 1012.0
20260502122657 28 177 0.0 0.0 0.00 0.00 0.00 82 1011.0
20260502122157 28 178 1.6 1.6 0.00 0.00 0.00 81 1011.0
20260502121658 28 171 0.0 0.0 0.00 0.00 0.00 82 1011.0
20260502121157 28 181 1.6 1.6 0.00 0.00 0.00 81 1011.0
20260502120658 28 182 1.6 1.6 0.00 0.00 0.00 81 1011.0
20260502120157 28 206 3.2 3.2 0.00 0.00 0.00 81 1010.0
20260502115657 28 183 1.6 1.6 0.00 0.00 0.00 81 1010.0
20260502115157 28 219 4.8 4.8 0.00 0.00 0.00 81 1010.0
20260502114659 28 196 1.6 3.2 0.00 0.00 0.00 81 1010.0
20260502114157 28 224 4.8 4.8 0.00 0.00 0.00 81 1010.0
20260502113705 28 199 4.8 4.8 0.00 0.00 0.00 81 1010.0
20260502113157 28 196 3.2 3.2 0.00 0.00 0.00 81 1010.0
20260502112658 28 173 1.6 3.2 0.00 0.00 0.00 81 1010.0
20260502112157 28 180 3.2 3.2 0.00 0.00 0.00 81 1010.0
20260502111657 28 204 6.4 8.0 0.00 0.00 0.00 81 1010.0
20260502111157 28 177 1.6 1.6 0.00 0.00 0.00 81 1010.0
20260502110658 28 226 3.2 3.2 0.00 0.00 0.00 81 1010.0
20260502110157 28 193 4.8 4.8 0.00 0.00 0.00 80 1010.0
20260502105657 29 188 1.6 3.2 0.00 0.00 0.00 81 1010.0
20260502105158 29 196 4.8 4.8 0.00 0.00 0.00 81 1009.0
20260502104658 29 224 6.4 8.0 0.00 0.00 0.00 80 1009.0
20260502104157 29 226 4.8 8.0 0.00 0.00 0.00 80 1009.0
20260502103657 29 210 3.2 3.2 0.00 0.00 0.00 80 1009.0
20260502103159 29 191 3.2 3.2 0.00 0.00 0.00 80 1009.0
20260502102658 29 208 4.8 4.8 0.00 0.00 0.00 80 1009.0
20260502102157 29 202 4.8 8.0 0.00 0.00 0.00 79 1009.0
20260502101657 29 225 8.0 9.7 0.00 0.00 0.00 79 1009.0
20260502101157 30 232 8.0 9.7 0.00 0.00 0.00 79 1009.0
20260502100657 30 203 0.0 0.0 0.00 0.00 0.00 79 1009.0
20260502100157 30 236 8.0 8.0 0.00 0.00 0.00 78 1009.0
20260502091157 30 190 9.7 12.9 0.00 0.00 0.00 78 1009.0
20260502090659 30 177 9.7 11.3 0.00 0.00 0.00 78 1009.0
20260502090200 30 211 16.1 17.7 0.00 0.00 0.00 78 1009.0
20260502071157 32 189 11.3 12.9 0.00 0.00 0.00 72 1009.0
20260502070658 32 195 11.3 12.9 0.00 0.00 0.00 71 1009.0
20260502070157 32 212 9.7 12.9 0.00 0.00 0.00 73 1009.0
20260502065657 31 189 6.4 9.7 0.00 0.00 0.00 75 1009.0
20260502065157 31 192 9.7 11.3 0.00 0.00 0.00 75 1009.0
20260502064657 32 255 14.5 14.5 0.00 0.00 0.00 74 1009.0
20260502064158 33 175 6.4 8.0 0.00 0.00 0.00 69 1009.0
20260502063657 33 63 4.8 9.7 0.00 0.00 0.00 60 1009.0
20260502063157 33 7 6.4 8.0 0.00 0.00 0.00 61 1009.0
20260502062657 33 304 3.2 4.8 0.00 0.00 0.00 61 1009.0
20260502062157 33 197 3.2 3.2 0.00 0.00 0.00 61 1009.0
20260502061657 33 293 14.5 16.1 0.00 0.00 0.00 61 1009.0
20260502061157 33 282 11.3 12.9 0.00 0.00 0.00 62 1009.0
20260502060658 33 40 9.7 12.9 0.00 0.00 0.00 61 1009.0
20260502060157 32 331 8.0 11.3 0.00 0.00 0.00 63 1009.0
20260502055657 32 18 6.4 9.7 0.00 0.00 0.00 63 1010.0
20260502055157 32 353 8.0 11.3 0.00 0.00 0.00 63 1010.0
20260502054658 32 125 9.7 12.9 0.00 0.00 0.00 64 1010.0
20260502054157 32 272 8.0 9.7 0.00 0.00 0.00 63 1010.0
20260502053657 32 334 6.4 9.7 0.00 0.00 0.00 63 1010.0
20260502053159 32 245 4.8 4.8 0.00 0.00 0.00 64 1010.0
20260502052657 32 309 12.9 14.5 0.00 0.00 0.00 64 1010.0
20260502052157 32 312 17.7 17.7 0.00 0.00 0.00 64 1010.0
20260502051657 32 350 9.7 11.3 0.00 0.00 0.00 64 1010.0
20260502051157 32 276 11.3 12.9 0.00 0.00 0.00 64 1010.0
20260502050657 32 333 8.0 11.3 0.00 0.00 0.00 64 1010.0
20260502050157 32 349 11.3 12.9 0.00 0.00 0.00 65 1010.0
20260502045657 32 292 11.3 12.9 0.00 0.00 0.00 64 1010.0
20260502045157 32 6 9.7 12.9 0.00 0.00 0.00 64 1010.0
20260502044657 32 332 6.4 9.7 0.00 0.00 0.00 64 1010.0
20260502044159 32 246 4.8 4.8 0.00 0.00 0.00 64 1010.0
20260502043657 32 350 8.0 11.3 0.00 0.00 0.00 64 1010.0
20260502043157 32 4 4.8 8.0 0.00 0.00 0.00 65 1010.0
20260502042658 32 307 12.9 16.1 0.00 0.00 0.00 64 1010.0
20260502042157 32 278 11.3 11.3 0.00 0.00 0.00 64 1011.0
20260502041657 32 217 4.8 4.8 0.00 0.00 0.00 63 1011.0
20260502041157 32 17 6.4 8.0 0.00 0.00 0.00 62 1011.0
20260502040657 33 236 9.7 12.9 0.00 0.00 0.00 64 1011.0
20260502040157 32 281 8.0 8.0 0.00 0.00 0.00 63 1011.0
20260502035657 32 221 3.2 3.2 0.00 0.00 0.00 66 1011.0
20260502035157 32 285 11.3 12.9 0.00 0.00 0.00 66 1011.0
20260502034659 32 271 9.7 11.3 0.00 0.00 0.00 65 1011.0
20260502034157 32 157 8.0 11.3 0.00 0.00 0.00 67 1011.0
20260502033658 32 295 6.4 8.0 0.00 0.00 0.00 68 1011.0
20260502033157 32 286 6.4 8.0 0.00 0.00 0.00 67 1011.0
20260502032657 32 172 3.2 3.2 0.00 0.00 0.00 67 1012.0
20260502032158 32 261 8.0 8.0 0.00 0.00 0.00 67 1012.0
20260502031658 32 324 8.0 9.7 0.00 0.00 0.00 67 1012.0
20260502031157 32 235 11.3 14.5 0.00 0.00 0.00 67 1012.0
20260502030657 32 236 3.2 3.2 0.00 0.00 0.00 68 1012.0
20260502030157 32 257 6.4 8.0 0.00 0.00 0.00 67 1012.0
20260502025657 31 242 6.4 9.7 0.00 0.00 0.00 68 1012.0
20260502025157 31 296 12.9 14.5 0.00 0.00 0.00 67 1012.0
20260502024658 31 203 3.2 3.2 0.00 0.00 0.00 69 1012.0
20260502024158 31 228 8.0 11.3 0.00 0.00 0.00 68 1012.0
20260502023657 31 314 8.0 9.7 0.00 0.00 0.00 69 1013.0
20260502023157 31 260 8.0 9.7 0.00 0.00 0.00 68 1012.0
20260502022658 31 336 8.0 9.7 0.00 0.00 0.00 68 1012.0
20260502022158 31 263 4.8 4.8 0.00 0.00 0.00 69 1013.0
20260502021657 31 315 11.3 12.9 0.00 0.00 0.00 69 1012.0
20260502021157 31 216 3.2 3.2 0.00 0.00 0.00 71 1012.0
20260502020657 31 169 0.0 0.0 0.00 0.00 0.00 71 1012.0
20260502020157 31 172 0.0 0.0 0.00 0.00 0.00 74 1012.0
20260502015658 30 172 0.0 1.6 0.00 0.00 0.00 74 1012.0
20260502015157 30 195 3.2 4.8 0.00 0.00 0.00 73 1012.0
20260502014658 30 177 1.6 1.6 0.00 0.00 0.00 74 1013.0
20260502014159 31 263 4.8 4.8 0.00 0.00 0.00 73 1013.0
20260502013658 30 229 6.4 8.0 0.00 0.00 0.00 74 1013.0
20260502013157 30 163 0.0 0.0 0.00 0.00 0.00 75 1012.0
20260502012657 30 172 1.6 1.6 0.00 0.00 0.00 76 1013.0
20260502012157 29 156 0.0 0.0 0.00 0.00 0.00 79 1012.0
20260502011657 30 133 3.2 3.2 0.00 0.00 0.00 78 1012.0
20260502011157 30 175 0.0 0.0 0.00 0.00 0.00 79 1012.0
20260502010657 29 165 1.6 1.6 0.00 0.00 0.00 81 1012.0
20260502010157 28 174 1.6 1.6 0.00 0.00 0.00 82 1012.0
20260502005657 28 127 4.8 4.8 0.00 0.00 0.00 83 1012.0
20260502005157 28 156 3.2 3.2 0.00 0.00 0.00 83 1012.0
20260502004657 28 146 0.0 1.6 0.00 0.00 0.00 84 1012.0
20260502004157 28 96 6.4 8.0 0.00 0.00 0.00 85 1012.0
20260502003657 27 171 0.0 0.0 0.00 0.00 0.00 87 1012.0
20260502003157 27 165 1.6 1.6 0.00 0.00 0.00 88 1012.0
20260502002657 27 166 0.0 0.0 0.00 0.00 0.00 88 1012.0
20260502002157 27 176 1.6 1.6 0.00 0.00 0.00 90 1012.0
20260502001657 26 136 3.2 3.2 0.00 0.00 0.00 91 1012.0
20260502001157 26 154 0.0 1.6 0.00 0.00 0.00 91 1012.0
20260502000657 26 129 1.6 3.2 0.00 0.00 0.00 92 1012.0
20260502000157 26 132 1.6 1.6 0.00 0.00 0.00 92 1012.0
20260501235657 26 155 3.2 3.2 0.00 0.00 0.00 93 1012.0
20260501235157 26 128 3.2 3.2 0.00 0.00 0.00 94 1012.0
20260501234657 25 162 0.0 1.6 0.00 0.00 0.00 95 1012.0
20260501234157 25 133 0.0 0.0 0.00 0.00 0.00 95 1012.0
20260501233657 25 136 1.6 3.2 0.00 0.00 0.00 95 1012.0
20260501233157 25 162 0.0 0.0 0.00 0.00 0.00 96 1011.0
20260501232658 25 169 0.0 0.0 0.00 0.00 0.00 97 1011.0
20260501232157 25 165 0.0 0.0 0.00 0.00 0.00 97 1011.0
20260501231657 25 165 0.0 0.0 0.00 0.00 0.00 97 1011.0
20260501231157 25 159 0.0 0.0 0.00 0.00 0.00 98 1011.0
20260501230657 25 160 0.0 0.0 0.00 0.00 0.00 98 1012.0
20260501230158 25 166 0.0 0.0 0.00 0.00 0.00 98 1011.0
20260501225657 25 165 0.0 0.0 0.00 0.00 0.00 98 1011.0
20260501225157 25 157 0.0 0.0 0.00 0.00 0.00 98 1011.0
20260501224657 25 160 0.0 0.0 0.00 0.00 0.00 98 1011.0
20260501224157 25 147 0.0 0.0 0.00 0.00 0.00 98 1011.0
20260501223659 25 148 0.0 0.0 0.00 0.00 0.00 98 1011.0
20260501223157 25 126 4.8 4.8 0.00 0.00 0.00 98 1011.0
20260501222657 25 132 3.2 3.2 0.00 0.00 0.00 98 1011.0